[[{"header":{"parameterUnit":"m.s-1","parameterCategory":1,"la1":30.2991,"la2":30.254,"lo1":-89.0895,"lo2":-89.0444,"dy":0.0017,"dx":0.0017,"nx":28,"ny":28,"refTime":"2024-05-03T21:00:00:Z","depth":0,"parameterNumber":2,"parameterNumberName":"U-component_of_WINDS"},"data":[0,0,0,0,0,0,0,0,0,0,0,0,0,0,0,0,0,0,0,0,0,0,0,0,0,0,0,0,0,0,0,0,0,0,0,0,0,0,0,0,0,0,0,0,0,0,0,0,0,0,0,0,0,0,0,0,0,0,-0.2303,-0.2302,0,-0.2281,-0.2281,-0.228,-0.229,-0.229,-0.2291,-0.2291,-0.2268,-0.2267,-0.2266,0,0,0,0,0,0,0,0,0,0,0,0,0,-0.235,-0.2349,-0.2303,-0.2302,-0.2302,-0.2281,-0.2281,-0.228,-0.229,-0.229,-0.2291,-0.2292,-0.2268,-0.2267,-0.2266,0,0,0,0,0,0,0,0,0,0,0,0,0,-0.2329,-0.2349,-0.2303,-0.2304,-0.2304,-0.2281,-0.2281,-0.228,-0.229,-0.229,-0.2291,-0.2292,-0.2269,-0.2267,-0.2266,-0.2239,0,0,-0.226,-0.226,0,0,0,0,0,0,0,0,-0.233,-0.2327,-0.2304,-0.2304,-0.2304,-0.2289,-0.2289,-0.2267,-0.2289,-0.2295,-0.2291,-0.2292,-0.2274,-0.2272,-0.2266,-0.2238,-0.2237,-0.226,-0.2259,-0.2259,-0.2258,0,0,0,0,0,0,0,-0.2332,-0.2328,-0.2294,-0.2304,-0.2304,-0.2305,-0.2303,-0.2285,-0.228,-0.2295,-0.2295,-0.2293,-0.2274,-0.2268,-0.2266,-0.2237,-0.226,-0.2259,-0.2258,-0.2257,-0.2184,-0.2183,0,0,0,0,0,0,-0.2333,-0.2329,-0.2295,-0.2293,-0.2319,-0.2304,-0.2301,-0.2293,-0.2281,-0.228,-0.2292,-0.2293,-0.227,-0.2268,-0.2265,-0.2233,-0.2259,-0.2257,-0.2256,-0.2185,-0.2184,-0.2183,0,0,0,0,0,0,-0.2334,-0.233,-0.2296,-0.2312,-0.2307,-0.2302,-0.2293,-0.2292,-0.2286,-0.2279,-0.2278,-0.2286,-0.2271,-0.2267,-0.2245,-0.2232,-0.2256,-0.2255,-0.2186,-0.2185,-0.2183,-0.2168,0,0,0,0,0,0,-0.2336,-0.233,-0.2321,-0.2311,-0.2306,-0.2277,-0.2292,-0.2291,-0.2283,-0.2284,-0.2273,-0.2272,-0.2271,-0.2248,-0.2244,-0.223,-0.2253,-0.2187,-0.2186,-0.2184,-0.217,-0.2166,-0.2163,0,0,0,0,0,-0.2337,-0.2318,-0.2321,-0.2316,-0.2295,-0.2276,-0.2273,-0.2273,-0.2282,-0.2272,-0.2267,-0.2272,-0.2234,-0.2245,-0.2241,-0.2227,-0.2188,-0.2186,-0.2184,-0.2171,-0.2167,-0.2163,0,0,0,0,0,0,-0.2326,-0.2317,-0.232,-0.2296,-0.2287,-0.2278,-0.2265,-0.2269,-0.2257,-0.2258,-0.2258,-0.2256,-0.2232,-0.2227,-0.224,-0.22,-0.2212,-0.2209,-0.2204,-0.22,-0.2197,-0.2198,-0.2252,0,0,0,0,0,-0.2321,-0.2307,-0.2299,-0.228,-0.2275,-0.2271,-0.2263,-0.2263,-0.2253,-0.2249,-0.2243,-0.2233,-0.2218,-0.2209,-0.2195,-0.2169,-0.2166,-0.2156,-0.2153,-0.2151,-0.2148,-0.2132,-0.2128,-0.2176,-0.2176,-0.2176,0,0,-0.231,-0.2303,-0.2295,-0.2277,-0.227,-0.2255,-0.2267,-0.2251,-0.224,-0.2247,-0.2226,-0.222,-0.2209,-0.2184,-0.2173,-0.2179,-0.2134,-0.2148,-0.2146,-0.2145,-0.213,-0.2125,-0.2121,-0.2175,-0.2175,-0.2175,0,0,-0.2283,-0.2277,-0.2259,-0.2251,-0.224,-0.2237,-0.2233,-0.2223,-0.2219,-0.2198,-0.2202,-0.2188,-0.2164,-0.2155,-0.2147,-0.2114,-0.2118,-0.211,-0.2093,-0.2078,-0.2074,-0.2071,-0.2058,-0.2054,-0.2107,-0.2107,-0.2107,0,-0.2271,-0.2249,-0.2249,-0.2232,-0.2224,-0.2229,-0.221,-0.2203,-0.2188,-0.2181,-0.2188,-0.2157,-0.2149,-0.2122,-0.2114,-0.2108,-0.2102,-0.2111,-0.2075,-0.2071,-0.2068,-0.2056,-0.2052,-0.2106,-0.2106,-0.2106,-0.2106,0,-0.2234,-0.2219,-0.2206,-0.2191,-0.2181,-0.2163,-0.216,-0.2149,-0.215,-0.2146,-0.2123,-0.2115,-0.2099,-0.2092,-0.2093,-0.2064,-0.2068,-0.2075,-0.2088,-0.2062,-0.2051,-0.2047,-0.2105,-0.2105,-0.2105,-0.2106,0,0,-0.2201,-0.2185,-0.218,-0.2172,-0.216,-0.2147,-0.2129,-0.2114,-0.2104,-0.2093,-0.2077,-0.2055,-0.2061,-0.2052,-0.2052,-0.2038,-0.2012,-0.2047,-0.2046,-0.204,-0.1978,-0.1973,-0.1968,-0.2014,-0.2013,-0.2013,-0.1979,0,-0.2172,-0.2141,-0.2139,-0.211,-0.2095,-0.2099,-0.2083,-0.2073,-0.2069,-0.2055,-0.2049,-0.2034,-0.2043,-0.2037,-0.2024,-0.2018,-0.1999,-0.202,-0.1999,-0.1998,-0.2001,-0.1962,-0.1957,-0.1926,-0.1975,-0.1974,-0.1974,0,-0.2135,-0.2122,-0.2091,-0.2079,-0.2073,-0.2059,-0.2043,-0.203,-0.2018,-0.2016,-0.2005,-0.2006,-0.1987,-0.2,-0.1972,-0.1986,-0.1977,-0.1972,-0.1971,-0.1969,-0.1984,-0.1959,-0.1916,-0.1911,-0.1967,-0.1967,-0.1968,0,-0.2112,-0.2087,-0.2066,-0.2059,-0.2045,-0.2034,-0.2028,-0.2017,-0.2007,-0.1993,-0.1986,-0.1971,-0.1962,-0.1949,-0.1946,-0.1956,-0.1917,-0.1931,-0.1914,-0.1914,-0.1906,-0.1907,-0.1861,-0.1901,-0.1901,-0.1901,-0.1901,0,-0.208,-0.2061,-0.2055,-0.2042,-0.202,-0.2018,-0.1997,-0.199,-0.198,-0.1965,-0.1967,-0.1953,-0.1949,-0.1933,-0.193,-0.1907,-0.1903,-0.19,-0.1899,-0.19,-0.19,-0.1894,-0.1896,-0.1899,-0.19,-0.19,-0.19,0,-0.2052,-0.2047,-0.2023,-0.2011,-0.2008,-0.1992,-0.1981,-0.1968,-0.1963,-0.1944,-0.1939,-0.1931,-0.1913,-0.1908,-0.1886,-0.1884,-0.1856,-0.1858,-0.1861,-0.1861,-0.1844,-0.1845,-0.1793,-0.1786,-0.183,-0.183,-0.1829,0,-0.2032,-0.2017,-0.2003,-0.1993,-0.1986,-0.197,-0.1959,-0.1956,-0.1945,-0.1929,-0.1918,-0.19,-0.1885,-0.1855,-0.1847,-0.183,-0.1831,-0.1814,-0.1829,-0.1829,-0.183,-0.1831,-0.1829,-0.1811,-0.1811,-0.181,-0.181,0,-0.1996,-0.1994,-0.198,-0.1963,-0.1951,-0.1938,-0.1926,-0.1917,-0.1912,-0.19,-0.1881,-0.1869,-0.1847,-0.1828,-0.1811,-0.1803,-0.1805,-0.1805,-0.18,-0.1801,-0.1803,-0.1801,-0.1853,-0.1807,-0.1807,-0.1807,-0.1807,-0.1807,-0.1971,-0.1958,-0.1945,-0.1928,-0.1919,-0.1907,-0.1893,-0.1886,-0.187,-0.1852,-0.185,-0.183,-0.1817,-0.1793,-0.1784,-0.1768,-0.1773,-0.1766,-0.1764,-0.1762,-0.1761,-0.1805,-0.1764,-0.1764,-0.1765,-0.1765,-0.1765,0,-0.1935,-0.1927,-0.1911,-0.1894,-0.188,-0.1883,-0.1869,-0.1857,-0.1839,-0.1827,-0.1812,-0.179,-0.1771,-0.1762,-0.1743,-0.1732,-0.1732,-0.1727,-0.1728,-0.1726,-0.1758,-0.1763,-0.1727,-0.1727,-0.1727,-0.1727,-0.1727,-0.1727,-0.1915,-0.1892,-0.1888,-0.186,-0.1852,-0.1832,-0.1824,-0.1812,-0.1802,-0.1777,-0.1762,-0.1755,-0.1743,-0.1724,-0.1707,-0.1704,-0.1697,-0.1691,-0.1689,-0.172,-0.1723,-0.1727,-0.1733,-0.169,-0.169,-0.1659,-0.1658,-0.1658]},{"header":{"parameterUnit":"m.s-1","parameterCategory":1,"la1":30.2991,"la2":30.254,"lo1":-89.0895,"lo2":-89.0444,"dy":0.0017,"dx":0.0017,"nx":28,"ny":28,"refTime":"2024-05-03T21:00:00:Z","depth":0,"parameterNumber":3,"parameterNumberName":"V-component_of_WINDS"},"data":[0,0,0,0,0,0,0,0,0,0,0,0,0,0,0,0,0,0,0,0,0,0,0,0,0,0,0,0,0,0,0,0,0,0,0,0,0,0,0,0,0,0,0,0,0,0,0,0,0,0,0,0,0,0,0,0,0,0,1.2622,1.2623,0,1.271,1.2711,1.2712,1.2784,1.2785,1.2785,1.2786,1.2874,1.2875,1.2877,0,0,0,0,0,0,0,0,0,0,0,0,0,1.2514,1.2516,1.2622,1.2623,1.2625,1.271,1.2711,1.2712,1.2784,1.2785,1.2786,1.2786,1.2873,1.2875,1.2877,0,0,0,0,0,0,0,0,0,0,0,0,0,1.2577,1.2516,1.2622,1.2671,1.2676,1.2709,1.2711,1.2712,1.2783,1.2785,1.2786,1.2787,1.2873,1.2875,1.2877,1.287,0,0,1.2885,1.2886,0,0,0,0,0,0,0,0,1.2573,1.2581,1.2662,1.2667,1.2673,1.2737,1.2705,1.2765,1.2783,1.2743,1.2786,1.2787,1.2827,1.2834,1.2847,1.2874,1.2878,1.2885,1.2887,1.2888,1.2888,0,0,0,0,0,0,0,1.2569,1.2578,1.2657,1.2663,1.267,1.2687,1.2697,1.2717,1.2777,1.2746,1.2752,1.2761,1.2831,1.2845,1.285,1.2879,1.2885,1.2887,1.2889,1.289,1.2901,1.2899,0,0,0,0,0,0,1.2558,1.2574,1.2654,1.266,1.2625,1.2688,1.2699,1.2715,1.2777,1.2788,1.276,1.2764,1.284,1.2847,1.2853,1.2847,1.2888,1.289,1.2891,1.2902,1.29,1.2899,0,0,0,0,0,0,1.2555,1.2564,1.2651,1.2618,1.263,1.2689,1.2706,1.2717,1.2731,1.2788,1.2799,1.2764,1.2841,1.285,1.2865,1.2851,1.2891,1.2893,1.2903,1.2901,1.29,1.2834,0,0,0,0,0,0,1.2552,1.2563,1.2561,1.2618,1.2632,1.2661,1.2705,1.2717,1.2735,1.2741,1.2794,1.2804,1.2843,1.2861,1.2867,1.2855,1.2895,1.2905,1.2902,1.29,1.2837,1.283,1.2823,0,0,0,0,0,1.2547,1.2539,1.2561,1.257,1.2631,1.266,1.2668,1.2714,1.2734,1.2732,1.2768,1.2802,1.2851,1.2861,1.2869,1.2858,1.2906,1.2903,1.29,1.284,1.2831,1.2824,0,0,0,0,0,0,1.248,1.2548,1.2572,1.2582,1.2615,1.2672,1.2672,1.2703,1.273,1.2735,1.2789,1.2801,1.2809,1.2835,1.2845,1.2852,1.2883,1.2882,1.2835,1.2826,1.282,1.2813,1.2897,0,0,0,0,0,1.2466,1.2485,1.2543,1.2546,1.2561,1.2613,1.2628,1.266,1.2695,1.2709,1.2747,1.278,1.2802,1.2816,1.284,1.2842,1.2853,1.2837,1.283,1.2824,1.2822,1.2823,1.2816,1.289,1.289,1.289,0,0,1.2438,1.2477,1.2486,1.2533,1.2563,1.2579,1.2625,1.2641,1.2653,1.2712,1.2728,1.2756,1.2796,1.2803,1.2808,1.2825,1.2804,1.2821,1.2816,1.2817,1.2819,1.2812,1.2806,1.2889,1.2889,1.2889,0,0,1.2395,1.2428,1.2433,1.2461,1.2504,1.2538,1.2539,1.2592,1.2613,1.2629,1.2673,1.2688,1.2726,1.2752,1.2771,1.2735,1.2766,1.2741,1.2705,1.2704,1.2698,1.2693,1.2679,1.2673,1.2739,1.2739,1.2739,0,1.2354,1.2382,1.2431,1.2445,1.2463,1.2517,1.2521,1.2546,1.2594,1.2605,1.2624,1.2671,1.2702,1.2715,1.2706,1.272,1.2721,1.2735,1.2696,1.2691,1.2687,1.2674,1.2668,1.2736,1.2736,1.2736,1.2737,0,1.2329,1.2348,1.2346,1.2392,1.241,1.2419,1.2468,1.2481,1.251,1.2542,1.2557,1.2596,1.2628,1.2633,1.2663,1.265,1.2659,1.2686,1.2717,1.2676,1.2664,1.2659,1.2731,1.2732,1.2733,1.2734,0,0,1.2247,1.2318,1.2316,1.2336,1.2387,1.2402,1.2412,1.2443,1.2452,1.2483,1.2492,1.2522,1.2547,1.2567,1.26,1.26,1.2566,1.2627,1.2628,1.2612,1.2552,1.253,1.2523,1.2588,1.2587,1.2586,1.2548,0,1.2211,1.2233,1.2276,1.2284,1.23,1.235,1.2359,1.239,1.2419,1.2437,1.2469,1.2489,1.2521,1.2533,1.2535,1.257,1.2554,1.2573,1.2595,1.2595,1.2582,1.2518,1.2496,1.2457,1.2544,1.2543,1.2542,0,1.2172,1.22,1.2209,1.2256,1.2265,1.2272,1.2302,1.2319,1.2354,1.2376,1.2397,1.2433,1.2445,1.2474,1.249,1.2502,1.2513,1.2531,1.2531,1.2533,1.2565,1.2517,1.2446,1.244,1.2536,1.2537,1.2537,0,1.2109,1.2148,1.2158,1.2174,1.223,1.2233,1.2257,1.2294,1.2309,1.2335,1.2345,1.2373,1.2388,1.2407,1.2449,1.2467,1.2459,1.2493,1.2476,1.2474,1.2471,1.2471,1.24,1.2481,1.2481,1.2481,1.2481,0,1.2063,1.2066,1.213,1.2136,1.214,1.2189,1.2192,1.222,1.2251,1.2262,1.2308,1.2317,1.2372,1.2387,1.2419,1.2426,1.2433,1.2449,1.2458,1.2445,1.2442,1.2452,1.2455,1.2479,1.248,1.248,1.248,0,1.1993,1.2036,1.205,1.2101,1.2114,1.2115,1.2158,1.2165,1.2197,1.221,1.2216,1.2266,1.2286,1.2329,1.2361,1.2383,1.2381,1.2397,1.2369,1.2374,1.2353,1.2354,1.2285,1.2277,1.2364,1.2363,1.2363,0,1.1961,1.1964,1.2015,1.2026,1.2047,1.2064,1.208,1.2127,1.2141,1.2181,1.2182,1.2205,1.2227,1.2256,1.2294,1.2318,1.2334,1.2308,1.2338,1.2324,1.2332,1.233,1.233,1.2301,1.23,1.2299,1.2298,0,1.1898,1.1918,1.1939,1.1966,1.1983,1.2007,1.2033,1.2039,1.2093,1.2106,1.2126,1.2143,1.2175,1.2196,1.2226,1.2249,1.2281,1.2289,1.2286,1.2272,1.2254,1.2261,1.2349,1.229,1.2291,1.2291,1.2292,1.2292,1.1845,1.1849,1.1885,1.1906,1.193,1.1953,1.1961,1.1993,1.2012,1.2041,1.2068,1.2085,1.2119,1.2162,1.2182,1.2196,1.2213,1.2209,1.2208,1.2205,1.2199,1.2253,1.2202,1.2202,1.2202,1.2203,1.2203,0,1.1782,1.1807,1.1826,1.1861,1.1876,1.1906,1.1936,1.1947,1.1962,1.199,1.201,1.2032,1.2053,1.2092,1.2117,1.212,1.2135,1.2124,1.2124,1.2128,1.2184,1.2183,1.2111,1.2111,1.2111,1.2111,1.2111,1.2111,1.1752,1.176,1.1784,1.1804,1.1829,1.1847,1.1861,1.1881,1.1904,1.1927,1.1945,1.197,1.2003,1.2029,1.2049,1.206,1.2066,1.205,1.2065,1.2116,1.2124,1.2133,1.2132,1.2051,1.2051,1.2008,1.2008,1.2007]}]]